Location: Namasale
(1.5000°N, 32.6167°E)
Time: 01:10:06
(UTC+00:00)

Explorer 11/Cluster Stage 4 - Visible Passes

Search period start: 21 April 2021 00:00
Search period end: 01 May 2021 00:00
Orbit: 467 x 1257 km, 28.8° (Epoch: 20 April)

Date Brightness Start Highest point End Pass type
(mag) Time Alt. Az. Time Alt. Az. Time Alt. Az.
28 Apr 9.5 18:11:00 10° SSW 18:11:29 11° SSW 18:11:29 11° SSW visible
29 Apr 9.2 17:59:14 10° SSW 18:01:25 16° S 18:01:25 16° S visible
30 Apr 8.8 17:47:35 10° SSW 17:51:27 22° S 17:51:27 22° S visible
